Location: Chateh
(58.6667°N, 118.6000°W)
Time: 12:34:22
(UTC+00:00)

NOAA 15 - Visible Passes

Search period start: 01 December 2023 00:00
Search period end: 11 December 2023 00:00
Orbit: 796 x 811 km, 98.6° (Epoch: 01 December)

Date Brightness Start Highest point End Pass type
(mag) Time Alt. Az. Time Alt. Az. Time Alt. Az.
01 Dec 5.2 01:06:02 10° ESE 01:10:47 35° NE 01:15:32 10° N visible
01 Dec 5.0 02:45:05 10° S 02:50:21 62° WSW 02:55:38 10° NNW visible
01 Dec 7.3 04:28:24 10° WSW 04:31:14 14° W 04:34:02 10° NW visible
01 Dec 6.8 14:50:43 10° NNE 14:55:13 27° E 14:59:40 10° SSE visible
02 Dec 5.5 00:41:09 10° ESE 00:45:27 26° NE 00:49:45 10° N visible
02 Dec 4.5 02:19:22 10° SSE 02:24:43 88° WSW 02:30:03 10° NNW visible
02 Dec 6.9 04:01:16 10° SW 04:05:13 21° W 04:09:13 10° NW visible
02 Dec 7.3 14:25:34 10° NE 14:29:18 19° E 14:32:59 10° SE visible
03 Dec 5.9 00:16:29 10° E 00:20:11 20° NE 00:23:54 10° N visible
03 Dec 4.5 01:53:54 10° SSE 01:59:09 65° ENE 02:04:25 10° NNW visible
03 Dec 6.3 03:34:41 10° SSW 03:39:20 30° W 03:43:59 10° NNW visible
03 Dec 7.6 14:00:57 10° NE 14:03:16 13° E 14:05:34 10° ESE visible
03 Dec 6.1 23:52:03 10° ENE 23:54:59 15° NE 23:57:57 10° N visible
04 Dec 4.8 01:28:38 10° SE 01:33:40 46° ENE 01:38:43 10° N visible
04 Dec 5.6 03:08:28 10° S 03:13:31 44° W 03:18:36 10° NNW visible
04 Dec 6.2 15:13:33 10° NNE 15:18:29 38° E 15:23:22 10° SSE visible
05 Dec 5.2 01:03:34 10° ESE 01:08:16 33° NE 01:12:59 10° N visible
05 Dec 4.9 02:42:32 10° S 02:47:48 64° WSW 02:53:05 10° NNW visible
05 Dec 7.3 04:25:41 10° WSW 04:28:38 15° W 04:31:36 10° NW visible
05 Dec 6.9 14:48:13 10° NNE 14:52:38 27° E 14:57:02 10° SSE visible
06 Dec 5.6 00:38:42 10° ESE 00:42:57 25° NE 00:47:11 10° N visible
06 Dec 4.5 02:16:51 10° SSE 02:22:10 89° ENE 02:27:30 10° NNW visible
06 Dec 6.8 03:58:37 10° SW 04:02:39 22° W 04:06:42 10° NW visible
06 Dec 7.3 14:23:05 10° NE 14:26:42 18° E 14:30:17 10° SE visible
07 Dec 5.9 00:14:03 10° E 00:17:41 19° NE 00:21:19 10° N visible
07 Dec 4.5 01:51:23 10° SE 01:56:37 63° ENE 02:01:51 10° NNW visible
07 Dec 6.2 03:32:04 10° SSW 03:36:45 31° W 03:41:28 10° NNW visible
07 Dec 7.6 13:58:34 10° NE 14:00:40 12° E 14:02:45 10° ESE visible
07 Dec 5.5 15:36:29 10° NNE 15:41:41 54° E 15:46:48 10° S visible
07 Dec 6.1 23:49:39 10° ENE 23:52:29 15° NE 23:55:20 10° N visible
08 Dec 4.9 01:26:08 10° SE 01:31:08 45° ENE 01:36:09 10° N visible
08 Dec 5.6 03:05:53 10° S 03:10:57 45° W 03:16:03 10° NNW visible
08 Dec 6.3 15:11:01 10° NNE 15:15:55 37° E 15:20:45 10° SSE visible
09 Dec 5.2 01:01:05 10° ESE 01:05:44 32° NE 01:10:24 10° N visible
09 Dec 4.9 02:39:58 10° S 02:45:15 66° WSW 02:50:32 10° NNW visible
09 Dec 7.2 04:22:58 10° WSW 04:26:03 15° W 04:29:07 10° NW visible
09 Dec 6.9 14:45:41 10° NE 14:50:03 26° E 14:54:23 10° SE visible
10 Dec 5.6 00:36:14 10° ESE 00:40:24 24° NE 00:44:35 10° N visible
10 Dec 4.5 02:14:19 10° SSE 02:19:36 86° ENE 02:24:56 10° NNW visible
10 Dec 6.8 03:55:57 10° SW 04:00:03 22° W 04:04:11 10° NW visible
10 Dec 7.4 14:20:36 10° NE 14:24:06 18° E 14:27:34 10° SE visible
